Date_Time,Julian_Date,Latitude,Longitude,Instrument_Depth,U,V,Speed,Direction
(yyyy-mm-dd hh:mn:ss UTC),(JD),(+ deg. North),(+ deg. East),(m),(cm/s),(cm/s),(cm/s),(deg True)
1981-12-15 20:00:00 UTC,2444954.333333,29.7697,-93.3439,0037,12.59,-64.79,66.0000,169.0000
1981-12-15 20:30:00 UTC,2444954.354167,29.7697,-93.3439,0037,10.77,-61.06,62.0000,170.0000
1981-12-15 21:00:00 UTC,2444954.375000,29.7697,-93.3439,0037,8.68,-49.24,50.0000,170.0000
1981-12-15 21:30:00 UTC,2444954.395833,29.7697,-93.3439,0037,6.65,-31.30,32.0000,168.0000
1981-12-15 22:00:00 UTC,2444954.416667,29.7697,-93.3439,0037,3.91,-9.21,10.0000,157.0000
1981-12-15 22:30:00 UTC,2444954.437500,29.7697,-93.3439,0037,0.96,10.96,11.0000,5.0000
1981-12-15 23:00:00 UTC,2444954.458333,29.7697,-93.3439,0037,-1.88,35.95,36.0000,357.0000
1981-12-15 23:30:00 UTC,2444954.479167,29.7697,-93.3439,0037,-3.25,61.92,62.0000,357.0000
1981-12-16 00:00:00 UTC,2444954.500000,29.7697,-93.3439,0037,-2.83,80.95,81.0000,358.0000
1981-12-16 00:30:00 UTC,2444954.520833,29.7697,-93.3439,0037,-1.55,88.99,89.0000,359.0000
1981-12-16 01:00:00 UTC,2444954.541667,29.7697,-93.3439,0037,-1.54,87.99,88.0000,359.0000
1981-12-16 01:30:00 UTC,2444954.562500,29.7697,-93.3439,0037,-1.52,86.99,87.0000,359.0000
1981-12-16 02:00:00 UTC,2444954.583333,29.7697,-93.3439,0037,-2.93,83.95,84.0000,358.0000
1981-12-16 02:30:00 UTC,2444954.604167,29.7697,-93.3439,0037,-4.13,78.89,79.0000,357.0000
1981-12-16 03:00:00 UTC,2444954.625000,29.7697,-93.3439,0037,-3.93,74.90,75.0000,357.0000
1981-12-16 03:30:00 UTC,2444954.645833,29.7697,-93.3439,0037,-3.66,69.90,70.0000,357.0000
1981-12-16 04:00:00 UTC,2444954.666667,29.7697,-93.3439,0037,-3.35,63.91,64.0000,357.0000
1981-12-16 04:30:00 UTC,2444954.687500,29.7697,-93.3439,0037,-4.19,59.85,60.0000,356.0000
1981-12-16 05:00:00 UTC,2444954.708333,29.7697,-93.3439,0037,-3.09,58.92,59.0000,357.0000
1981-12-16 05:30:00 UTC,2444954.729167,29.7697,-93.3439,0037,-2.02,57.96,58.0000,358.0000
1981-12-16 06:00:00 UTC,2444954.750000,29.7697,-93.3439,0037,-1.95,55.97,56.0000,358.0000
1981-12-16 06:30:00 UTC,2444954.770833,29.7697,-93.3439,0037,-0.87,49.99,50.0000,359.0000
1981-12-16 07:00:00 UTC,2444954.791667,29.7697,-93.3439,0037,-2.04,38.95,39.0000,357.0000
1981-12-16 07:30:00 UTC,2444954.812500,29.7697,-93.3439,0037,-2.93,27.85,28.0000,354.0000
1981-12-16 08:00:00 UTC,2444954.833333,29.7697,-93.3439,0037,-2.72,25.86,26.0000,354.0000
1981-12-16 08:30:00 UTC,2444954.854167,29.7697,-93.3439,0037,-2.70,30.88,31.0000,355.0000
1981-12-16 09:00:00 UTC,2444954.875000,29.7697,-93.3439,0037,-3.40,38.85,39.0000,355.0000
1981-12-16 09:30:00 UTC,2444954.895833,29.7697,-93.3439,0037,-3.14,44.89,45.0000,356.0000
1981-12-16 10:00:00 UTC,2444954.916667,29.7697,-93.3439,0037,-2.62,49.93,50.0000,357.0000
1981-12-16 10:30:00 UTC,2444954.937500,29.7697,-93.3439,0037,-1.85,52.97,53.0000,358.0000
1981-12-16 11:00:00 UTC,2444954.958333,29.7697,-93.3439,0037,-0.94,53.99,54.0000,359.0000
1981-12-16 11:30:00 UTC,2444954.979167,29.7697,-93.3439,0037,0.00,0.00,0.0000,0.0000
1981-12-16 12:00:00 UTC,2444955.000000,29.7697,-93.3439,0037,0.00,0.00,0.0000,0.0000
1981-12-16 12:30:00 UTC,2444955.020833,29.7697,-93.3439,0037,0.44,25.00,25.0000,1.0000
1981-12-16 13:00:00 UTC,2444955.041667,29.7697,-93.3439,0037,0.21,12.00,12.0000,1.0000
1981-12-16 13:30:00 UTC,2444955.062500,29.7697,-93.3439,0037,0.26,2.99,3.0000,5.0000
1981-12-16 14:00:00 UTC,2444955.083333,29.7697,-93.3439,0037,1.29,-4.83,5.0000,165.0000
1981-12-16 14:30:00 UTC,2444955.104167,29.7697,-93.3439,0037,2.49,-11.74,12.0000,168.0000
1981-12-16 15:00:00 UTC,2444955.125000,29.7697,-93.3439,0037,2.68,-21.84,22.0000,173.0000
1981-12-16 15:30:00 UTC,2444955.145833,29.7697,-93.3439,0037,2.53,-28.89,29.0000,175.0000
1981-12-16 16:00:00 UTC,2444955.166667,29.7697,-93.3439,0037,2.61,-29.89,30.0000,175.0000
1981-12-16 16:30:00 UTC,2444955.187500,29.7697,-93.3439,0037,3.14,-29.84,30.0000,174.0000
1981-12-16 17:00:00 UTC,2444955.208333,29.7697,-93.3439,0037,3.41,-27.79,28.0000,173.0000
1981-12-16 17:30:00 UTC,2444955.229167,29.7697,-93.3439,0037,4.22,-26.67,27.0000,171.0000
1981-12-16 18:00:00 UTC,2444955.250000,29.7697,-93.3439,0037,4.31,-30.70,31.0000,172.0000
1981-12-16 18:30:00 UTC,2444955.270833,29.7697,-93.3439,0037,4.51,-36.72,37.0000,173.0000
1981-12-16 19:00:00 UTC,2444955.291667,29.7697,-93.3439,0037,4.51,-36.72,37.0000,173.0000
1981-12-16 19:30:00 UTC,2444955.312500,29.7697,-93.3439,0037,5.15,-36.64,37.0000,172.0000
1981-12-16 20:00:00 UTC,2444955.333333,29.7697,-93.3439,0037,5.01,-35.65,36.0000,172.0000
1981-12-16 20:30:00 UTC,2444955.354167,29.7697,-93.3439,0037,4.85,-30.62,31.0000,171.0000
1981-12-16 21:00:00 UTC,2444955.375000,29.7697,-93.3439,0037,5.34,-27.49,28.0000,169.0000
1981-12-16 21:30:00 UTC,2444955.395833,29.7697,-93.3439,0037,5.56,-31.51,32.0000,170.0000
1981-12-16 22:00:00 UTC,2444955.416667,29.7697,-93.3439,0037,4.27,-34.74,35.0000,173.0000
1981-12-16 22:30:00 UTC,2444955.437500,29.7697,-93.3439,0037,3.41,-27.79,28.0000,173.0000
1981-12-16 23:00:00 UTC,2444955.458333,29.7697,-93.3439,0037,2.66,-16.79,17.0000,171.0000
1981-12-16 23:30:00 UTC,2444955.479167,29.7697,-93.3439,0037,1.09,1.68,2.0000,33.0000
1981-12-17 00:00:00 UTC,2444955.500000,29.7697,-93.3439,0037,-0.98,27.98,28.0000,358.0000
1981-12-17 00:30:00 UTC,2444955.520833,29.7697,-93.3439,0037,-2.88,54.92,55.0000,357.0000
1981-12-17 01:00:00 UTC,2444955.541667,29.7697,-93.3439,0037,-2.51,71.96,72.0000,358.0000
1981-12-17 01:30:00 UTC,2444955.562500,29.7697,-93.3439,0037,-2.65,75.95,76.0000,358.0000
1981-12-17 02:00:00 UTC,2444955.583333,29.7697,-93.3439,0037,-4.03,76.89,77.0000,357.0000
1981-12-17 02:30:00 UTC,2444955.604167,29.7697,-93.3439,0037,-4.13,78.89,79.0000,357.0000
1981-12-17 03:00:00 UTC,2444955.625000,29.7697,-93.3439,0037,-2.72,77.95,78.0000,358.0000
1981-12-17 03:30:00 UTC,2444955.645833,29.7697,-93.3439,0037,-2.62,74.95,75.0000,358.0000
1981-12-17 04:00:00 UTC,2444955.666667,29.7697,-93.3439,0037,-2.48,70.96,71.0000,358.0000
1981-12-17 04:30:00 UTC,2444955.687500,29.7697,-93.3439,0037,-2.34,66.96,67.0000,358.0000
1981-12-17 05:00:00 UTC,2444955.708333,29.7697,-93.3439,0037,-2.23,63.96,64.0000,358.0000
1981-12-17 05:30:00 UTC,2444955.729167,29.7697,-93.3439,0037,-3.04,57.92,58.0000,357.0000
1981-12-17 06:00:00 UTC,2444955.750000,29.7697,-93.3439,0037,-2.46,46.94,47.0000,357.0000
1981-12-17 06:30:00 UTC,2444955.770833,29.7697,-93.3439,0037,-0.59,33.99,34.0000,359.0000
1981-12-17 07:00:00 UTC,2444955.791667,29.7697,-93.3439,0037,1.05,19.97,20.0000,3.0000
1981-12-17 07:30:00 UTC,2444955.812500,29.7697,-93.3439,0037,1.04,4.89,5.0000,12.0000
1981-12-17 08:00:00 UTC,2444955.833333,29.7697,-93.3439,0037,1.25,-8.91,9.0000,172.0000
1981-12-17 08:30:00 UTC,2444955.854167,29.7697,-93.3439,0037,2.51,-17.82,18.0000,172.0000
1981-12-17 09:00:00 UTC,2444955.875000,29.7697,-93.3439,0037,3.34,-23.77,24.0000,172.0000
1981-12-17 09:30:00 UTC,2444955.895833,29.7697,-93.3439,0037,3.78,-30.77,31.0000,173.0000
1981-12-17 10:00:00 UTC,2444955.916667,29.7697,-93.3439,0037,4.02,-32.75,33.0000,173.0000
1981-12-17 10:30:00 UTC,2444955.937500,29.7697,-93.3439,0037,4.69,-29.63,30.0000,171.0000
1981-12-17 11:00:00 UTC,2444955.958333,29.7697,-93.3439,0037,3.90,-27.73,28.0000,172.0000
1981-12-17 11:30:00 UTC,2444955.979167,29.7697,-93.3439,0037,3.91,-24.69,25.0000,171.0000
1981-12-17 12:00:00 UTC,2444956.000000,29.7697,-93.3439,0037,4.34,-24.62,25.0000,170.0000
1981-12-17 12:30:00 UTC,2444956.020833,29.7697,-93.3439,0037,3.24,-30.83,31.0000,174.0000
1981-12-17 13:00:00 UTC,2444956.041667,29.7697,-93.3439,0037,3.55,-33.81,34.0000,174.0000
1981-12-17 13:30:00 UTC,2444956.062500,29.7697,-93.3439,0037,3.66,-34.81,35.0000,174.0000
1981-12-17 14:00:00 UTC,2444956.083333,29.7697,-93.3439,0037,4.39,-35.73,36.0000,173.0000
1981-12-17 14:30:00 UTC,2444956.104167,29.7697,-93.3439,0037,5.63,-35.56,36.0000,171.0000
1981-12-17 15:00:00 UTC,2444956.125000,29.7697,-93.3439,0037,5.71,-40.60,41.0000,172.0000
1981-12-17 15:30:00 UTC,2444956.145833,29.7697,-93.3439,0037,6.68,-47.53,48.0000,172.0000
1981-12-17 16:00:00 UTC,2444956.166667,29.7697,-93.3439,0037,7.67,-48.40,49.0000,171.0000
1981-12-17 16:30:00 UTC,2444956.187500,29.7697,-93.3439,0037,9.72,-55.15,56.0000,170.0000
1981-12-17 17:00:00 UTC,2444956.208333,29.7697,-93.3439,0037,12.40,-63.81,65.0000,169.0000
1981-12-17 17:30:00 UTC,2444956.229167,29.7697,-93.3439,0037,20.40,-71.13,74.0000,164.0000
1981-12-17 18:00:00 UTC,2444956.250000,29.7697,-93.3439,0037,28.73,-78.93,84.0000,160.0000
1981-12-17 18:30:00 UTC,2444956.270833,29.7697,-93.3439,0037,32.22,-79.74,86.0000,158.0000
1981-12-17 19:00:00 UTC,2444956.291667,29.7697,-93.3439,0037,30.46,-79.35,85.0000,159.0000
1981-12-17 19:30:00 UTC,2444956.312500,29.7697,-93.3439,0037,25.44,-83.20,87.0000,163.0000
1981-12-17 20:00:00 UTC,2444956.333333,29.7697,-93.3439,0037,19.57,-84.77,87.0000,167.0000
1981-12-17 20:30:00 UTC,2444956.354167,29.7697,-93.3439,0037,15.84,-81.48,83.0000,169.0000
1981-12-17 21:00:00 UTC,2444956.375000,29.7697,-93.3439,0037,12.05,-76.05,77.0000,171.0000
1981-12-17 21:30:00 UTC,2444956.395833,29.7697,-93.3439,0037,10.58,-75.26,76.0000,172.0000
1981-12-17 22:00:00 UTC,2444956.416667,29.7697,-93.3439,0037,9.38,-76.43,77.0000,173.0000
1981-12-17 22:30:00 UTC,2444956.437500,29.7697,-93.3439,0037,10.58,-75.26,76.0000,172.0000
1981-12-17 23:00:00 UTC,2444956.458333,29.7697,-93.3439,0037,12.33,-69.92,71.0000,170.0000
1981-12-17 23:30:00 UTC,2444956.479167,29.7697,-93.3439,0037,10.94,-62.04,63.0000,170.0000
1981-12-18 00:00:00 UTC,2444956.500000,29.7697,-93.3439,0037,8.29,-52.35,53.0000,171.0000
1981-12-18 00:30:00 UTC,2444956.520833,29.7697,-93.3439,0037,6.57,-41.48,42.0000,171.0000
1981-12-18 01:00:00 UTC,2444956.541667,29.7697,-93.3439,0037,6.86,-32.28,33.0000,168.0000
1981-12-18 01:30:00 UTC,2444956.562500,29.7697,-93.3439,0037,5.15,-26.50,27.0000,169.0000
1981-12-18 02:00:00 UTC,2444956.583333,29.7697,-93.3439,0037,2.64,-18.82,19.0000,172.0000
1981-12-18 02:30:00 UTC,2444956.604167,29.7697,-93.3439,0037,1.15,-10.94,11.0000,174.0000
1981-12-18 03:00:00 UTC,2444956.625000,29.7697,-93.3439,0037,0.56,-7.98,8.0000,176.0000
1981-12-18 03:30:00 UTC,2444956.645833,29.7697,-93.3439,0037,0.00,-5.00,5.0000,180.0000
1981-12-18 04:00:00 UTC,2444956.666667,29.7697,-93.3439,0037,0.00,-3.00,3.0000,180.0000
1981-12-18 04:30:00 UTC,2444956.687500,29.7697,-93.3439,0037,0.28,-1.98,2.0000,172.0000
1981-12-18 05:00:00 UTC,2444956.708333,29.7697,-93.3439,0037,0.35,-1.97,2.0000,170.0000
1981-12-18 05:30:00 UTC,2444956.729167,29.7697,-93.3439,0037,0.56,-3.96,4.0000,172.0000
1981-12-18 06:00:00 UTC,2444956.750000,29.7697,-93.3439,0037,0.61,-6.97,7.0000,175.0000
1981-12-18 06:30:00 UTC,2444956.770833,29.7697,-93.3439,0037,0.52,-14.99,15.0000,178.0000
1981-12-18 07:00:00 UTC,2444956.791667,29.7697,-93.3439,0037,0.47,-27.00,27.0000,179.0000
1981-12-18 07:30:00 UTC,2444956.812500,29.7697,-93.3439,0037,2.04,-38.95,39.0000,177.0000
1981-12-18 08:00:00 UTC,2444956.833333,29.7697,-93.3439,0037,5.23,-49.73,50.0000,174.0000
1981-12-18 08:30:00 UTC,2444956.854167,29.7697,-93.3439,0037,6.95,-56.58,57.0000,173.0000
1981-12-18 09:00:00 UTC,2444956.875000,29.7697,-93.3439,0037,9.70,-61.24,62.0000,171.0000
1981-12-18 09:30:00 UTC,2444956.895833,29.7697,-93.3439,0037,11.81,-66.97,68.0000,170.0000
1981-12-18 10:00:00 UTC,2444956.916667,29.7697,-93.3439,0037,12.50,-70.91,72.0000,170.0000
1981-12-18 10:30:00 UTC,2444956.937500,29.7697,-93.3439,0037,12.16,-68.94,70.0000,170.0000
1981-12-18 11:00:00 UTC,2444956.958333,29.7697,-93.3439,0037,9.05,-64.37,65.0000,172.0000
1981-12-18 11:30:00 UTC,2444956.979167,29.7697,-93.3439,0037,3.98,-56.86,57.0000,176.0000
1981-12-18 12:00:00 UTC,2444957.000000,29.7697,-93.3439,0037,2.51,-47.93,48.0000,177.0000
1981-12-18 12:30:00 UTC,2444957.020833,29.7697,-93.3439,0037,2.58,-36.91,37.0000,176.0000
1981-12-18 13:00:00 UTC,2444957.041667,29.7697,-93.3439,0037,2.61,-29.89,30.0000,175.0000
1981-12-18 13:30:00 UTC,2444957.062500,29.7697,-93.3439,0037,1.67,-23.94,24.0000,176.0000
1981-12-18 14:00:00 UTC,2444957.083333,29.7697,-93.3439,0037,0.94,-17.98,18.0000,177.0000
1981-12-18 14:30:00 UTC,2444957.104167,29.7697,-93.3439,0037,1.57,-14.92,15.0000,174.0000
1981-12-18 15:00:00 UTC,2444957.125000,29.7697,-93.3439,0037,1.58,-12.90,13.0000,173.0000
1981-12-18 15:30:00 UTC,2444957.145833,29.7697,-93.3439,0037,0.96,-10.96,11.0000,175.0000
1981-12-18 16:00:00 UTC,2444957.166667,29.7697,-93.3439,0037,0.84,-7.96,8.0000,174.0000
1981-12-18 16:30:00 UTC,2444957.187500,29.7697,-93.3439,0037,0.69,-3.94,4.0000,170.0000
1981-12-18 17:00:00 UTC,2444957.208333,29.7697,-93.3439,0037,0.41,0.91,1.0000,24.0000
1981-12-18 17:30:00 UTC,2444957.229167,29.7697,-93.3439,0037,-0.12,7.00,7.0000,359.0000
1981-12-18 18:00:00 UTC,2444957.250000,29.7697,-93.3439,0037,-0.49,13.99,14.0000,358.0000
1981-12-18 18:30:00 UTC,2444957.270833,29.7697,-93.3439,0037,0.00,0.00,0.0000,0.0000
1981-12-18 19:00:00 UTC,2444957.291667,29.7697,-93.3439,0037,0.56,32.00,32.0000,1.0000
1981-12-18 19:30:00 UTC,2444957.312500,29.7697,-93.3439,0037,0.66,37.99,38.0000,1.0000
1981-12-18 20:00:00 UTC,2444957.333333,29.7697,-93.3439,0037,0.00,0.00,0.0000,0.0000
1981-12-18 20:30:00 UTC,2444957.354167,29.7697,-93.3439,0037,-1.43,40.98,41.0000,358.0000
1981-12-18 21:00:00 UTC,2444957.375000,29.7697,-93.3439,0037,-3.22,36.86,37.0000,355.0000
1981-12-18 21:30:00 UTC,2444957.395833,29.7697,-93.3439,0037,-2.35,26.90,27.0000,355.0000
1981-12-18 22:00:00 UTC,2444957.416667,29.7697,-93.3439,0037,-1.05,19.97,20.0000,357.0000
1981-12-18 22:30:00 UTC,2444957.437500,29.7697,-93.3439,0037,0.00,0.00,0.0000,0.0000
1981-12-18 23:00:00 UTC,2444957.458333,29.7697,-93.3439,0037,0.84,15.98,16.0000,3.0000
1981-12-18 23:30:00 UTC,2444957.479167,29.7697,-93.3439,0037,0.59,16.99,17.0000,2.0000
1981-12-19 00:00:00 UTC,2444957.500000,29.7697,-93.3439,0037,-0.35,20.00,20.0000,359.0000
1981-12-19 00:30:00 UTC,2444957.520833,29.7697,-93.3439,0037,-0.87,24.98,25.0000,358.0000
1981-12-19 01:00:00 UTC,2444957.541667,29.7697,-93.3439,0037,-1.08,30.98,31.0000,358.0000
1981-12-19 01:30:00 UTC,2444957.562500,29.7697,-93.3439,0037,-1.94,36.95,37.0000,357.0000
1981-12-19 02:00:00 UTC,2444957.583333,29.7697,-93.3439,0037,-3.00,42.90,43.0000,356.0000
1981-12-19 02:30:00 UTC,2444957.604167,29.7697,-93.3439,0037,-3.56,50.88,51.0000,356.0000
1981-12-19 03:00:00 UTC,2444957.625000,29.7697,-93.3439,0037,-4.19,59.85,60.0000,356.0000
1981-12-19 03:30:00 UTC,2444957.645833,29.7697,-93.3439,0037,-3.61,68.91,69.0000,357.0000
1981-12-19 04:00:00 UTC,2444957.666667,29.7697,-93.3439,0037,-4.03,76.89,77.0000,357.0000
1981-12-19 04:30:00 UTC,2444957.687500,29.7697,-93.3439,0037,-2.86,81.95,82.0000,358.0000
1981-12-19 05:00:00 UTC,2444957.708333,29.7697,-93.3439,0037,-1.36,77.99,78.0000,359.0000
1981-12-19 05:30:00 UTC,2444957.729167,29.7697,-93.3439,0037,-2.55,72.96,73.0000,358.0000
1981-12-19 06:00:00 UTC,2444957.750000,29.7697,-93.3439,0037,-3.61,68.91,69.0000,357.0000
1981-12-19 06:30:00 UTC,2444957.770833,29.7697,-93.3439,0037,-3.40,64.91,65.0000,357.0000
1981-12-19 07:00:00 UTC,2444957.791667,29.7697,-93.3439,0037,-1.99,56.97,57.0000,358.0000
1981-12-19 07:30:00 UTC,2444957.812500,29.7697,-93.3439,0037,-1.71,48.97,49.0000,358.0000
1981-12-19 08:00:00 UTC,2444957.833333,29.7697,-93.3439,0037,-0.72,40.99,41.0000,359.0000
1981-12-19 08:30:00 UTC,2444957.854167,29.7697,-93.3439,0037,0.49,28.00,28.0000,1.0000
1981-12-19 09:00:00 UTC,2444957.875000,29.7697,-93.3439,0037,1.65,5.77,6.0000,16.0000
1981-12-19 09:30:00 UTC,2444957.895833,29.7697,-93.3439,0037,3.43,-17.67,18.0000,169.0000
1981-12-19 10:00:00 UTC,2444957.916667,29.7697,-93.3439,0037,5.79,-36.54,37.0000,171.0000
1981-12-19 10:30:00 UTC,2444957.937500,29.7697,-93.3439,0037,7.99,-45.30,46.0000,170.0000
1981-12-19 11:00:00 UTC,2444957.958333,29.7697,-93.3439,0037,7.81,-44.32,45.0000,170.0000
1981-12-19 11:30:00 UTC,2444957.979167,29.7697,-93.3439,0037,6.57,-41.48,42.0000,171.0000
1981-12-19 12:00:00 UTC,2444958.000000,29.7697,-93.3439,0037,6.12,-43.57,44.0000,172.0000
1981-12-19 12:30:00 UTC,2444958.020833,29.7697,-93.3439,0037,7.99,-45.30,46.0000,170.0000
1981-12-19 13:00:00 UTC,2444958.041667,29.7697,-93.3439,0037,8.16,-46.29,47.0000,170.0000
1981-12-19 13:30:00 UTC,2444958.062500,29.7697,-93.3439,0037,6.88,-43.46,44.0000,171.0000
1981-12-19 14:00:00 UTC,2444958.083333,29.7697,-93.3439,0037,6.43,-36.44,37.0000,170.0000
1981-12-19 14:30:00 UTC,2444958.104167,29.7697,-93.3439,0037,4.77,-24.54,25.0000,169.0000
1981-12-19 15:00:00 UTC,2444958.125000,29.7697,-93.3439,0037,2.92,-12.67,13.0000,167.0000
1981-12-19 15:30:00 UTC,2444958.145833,29.7697,-93.3439,0037,1.90,0.62,2.0000,72.0000
1981-12-19 16:00:00 UTC,2444958.166667,29.7697,-93.3439,0037,0.28,16.00,16.0000,1.0000
1981-12-19 16:30:00 UTC,2444958.187500,29.7697,-93.3439,0037,-1.08,30.98,31.0000,358.0000
1981-12-19 17:00:00 UTC,2444958.208333,29.7697,-93.3439,0037,-2.09,39.95,40.0000,357.0000
1981-12-19 17:30:00 UTC,2444958.229167,29.7697,-93.3439,0037,-3.14,44.89,45.0000,356.0000
1981-12-19 18:00:00 UTC,2444958.250000,29.7697,-93.3439,0037,-3.49,49.88,50.0000,356.0000
1981-12-19 18:30:00 UTC,2444958.270833,29.7697,-93.3439,0037,-2.88,54.92,55.0000,357.0000
1981-12-19 19:00:00 UTC,2444958.291667,29.7697,-93.3439,0037,-2.93,55.92,56.0000,357.0000
1981-12-19 19:30:00 UTC,2444958.312500,29.7697,-93.3439,0037,-1.71,48.97,49.0000,358.0000
1981-12-19 20:00:00 UTC,2444958.333333,29.7697,-93.3439,0037,-0.68,38.99,39.0000,359.0000
1981-12-19 20:30:00 UTC,2444958.354167,29.7697,-93.3439,0037,-0.51,29.00,29.0000,359.0000
1981-12-19 21:00:00 UTC,2444958.375000,29.7697,-93.3439,0037,-0.30,17.00,17.0000,359.0000
1981-12-19 21:30:00 UTC,2444958.395833,29.7697,-93.3439,0037,-0.07,4.00,4.0000,359.0000
1981-12-19 22:00:00 UTC,2444958.416667,29.7697,-93.3439,0037,0.35,-9.99,10.0000,178.0000
1981-12-19 22:30:00 UTC,2444958.437500,29.7697,-93.3439,0037,0.99,-18.97,19.0000,177.0000
1981-12-19 23:00:00 UTC,2444958.458333,29.7697,-93.3439,0037,1.46,-20.95,21.0000,176.0000
1981-12-19 23:30:00 UTC,2444958.479167,29.7697,-93.3439,0037,1.53,-21.95,22.0000,176.0000
1981-12-20 00:00:00 UTC,2444958.500000,29.7697,-93.3439,0037,1.74,-19.92,20.0000,175.0000
1981-12-20 00:30:00 UTC,2444958.520833,29.7697,-93.3439,0037,1.95,-13.86,14.0000,172.0000
1981-12-20 01:00:00 UTC,2444958.541667,29.7697,-93.3439,0037,1.00,0.02,1.0000,89.0000
1981-12-20 01:30:00 UTC,2444958.562500,29.7697,-93.3439,0037,-0.66,18.99,19.0000,358.0000
1981-12-20 02:00:00 UTC,2444958.583333,29.7697,-93.3439,0037,-2.72,38.90,39.0000,356.0000
1981-12-20 02:30:00 UTC,2444958.604167,29.7697,-93.3439,0037,-3.09,58.92,59.0000,357.0000
1981-12-20 03:00:00 UTC,2444958.625000,29.7697,-93.3439,0037,-2.58,73.95,74.0000,358.0000
1981-12-20 03:30:00 UTC,2444958.645833,29.7697,-93.3439,0037,-2.76,78.95,79.0000,358.0000
1981-12-20 04:00:00 UTC,2444958.666667,29.7697,-93.3439,0037,-2.76,78.95,79.0000,358.0000
1981-12-20 04:30:00 UTC,2444958.687500,29.7697,-93.3439,0037,-2.62,74.95,75.0000,358.0000
1981-12-20 05:00:00 UTC,2444958.708333,29.7697,-93.3439,0037,-2.51,71.96,72.0000,358.0000
1981-12-20 05:30:00 UTC,2444958.729167,29.7697,-93.3439,0037,-2.44,69.96,70.0000,358.0000
1981-12-20 06:00:00 UTC,2444958.750000,29.7697,-93.3439,0037,-3.51,66.91,67.0000,357.0000
1981-12-20 06:30:00 UTC,2444958.770833,29.7697,-93.3439,0037,-3.30,62.91,63.0000,357.0000
1981-12-20 07:00:00 UTC,2444958.791667,29.7697,-93.3439,0037,-3.04,57.92,58.0000,357.0000
1981-12-20 07:30:00 UTC,2444958.812500,29.7697,-93.3439,0037,-1.78,50.97,51.0000,358.0000
1981-12-20 08:00:00 UTC,2444958.833333,29.7697,-93.3439,0037,-0.73,41.99,42.0000,359.0000
1981-12-20 08:30:00 UTC,2444958.854167,29.7697,-93.3439,0037,0.94,26.98,27.0000,2.0000
1981-12-20 09:00:00 UTC,2444958.875000,29.7697,-93.3439,0037,0.94,5.93,6.0000,9.0000
1981-12-20 09:30:00 UTC,2444958.895833,29.7697,-93.3439,0037,1.88,-17.90,18.0000,174.0000
1981-12-20 10:00:00 UTC,2444958.916667,29.7697,-93.3439,0037,3.76,-35.80,36.0000,174.0000
1981-12-20 10:30:00 UTC,2444958.937500,29.7697,-93.3439,0037,4.60,-43.76,44.0000,174.0000
1981-12-20 11:00:00 UTC,2444958.958333,29.7697,-93.3439,0037,3.75,-42.84,43.0000,175.0000
1981-12-20 11:30:00 UTC,2444958.979167,29.7697,-93.3439,0037,3.57,-40.84,41.0000,175.0000
1981-12-20 12:00:00 UTC,2444959.000000,29.7697,-93.3439,0037,3.49,-39.85,40.0000,175.0000
1981-12-20 12:30:00 UTC,2444959.020833,29.7697,-93.3439,0037,3.31,-37.86,38.0000,175.0000
1981-12-20 13:00:00 UTC,2444959.041667,29.7697,-93.3439,0037,2.88,-32.87,33.0000,175.0000
1981-12-20 13:30:00 UTC,2444959.062500,29.7697,-93.3439,0037,3.53,-28.78,29.0000,173.0000
1981-12-20 14:00:00 UTC,2444959.083333,29.7697,-93.3439,0037,6.72,-22.00,23.0000,163.0000
1981-12-20 14:30:00 UTC,2444959.104167,29.7697,-93.3439,0037,7.95,-12.72,15.0000,148.0000
1981-12-20 15:00:00 UTC,2444959.125000,29.7697,-93.3439,0037,4.57,-2.03,5.0000,114.0000
1981-12-20 15:30:00 UTC,2444959.145833,29.7697,-93.3439,0037,1.25,11.93,12.0000,6.0000
1981-12-20 16:00:00 UTC,2444959.166667,29.7697,-93.3439,0037,-0.52,30.00,30.0000,359.0000
1981-12-20 16:30:00 UTC,2444959.187500,29.7697,-93.3439,0037,-2.51,47.93,48.0000,357.0000
1981-12-20 17:00:00 UTC,2444959.208333,29.7697,-93.3439,0037,-2.16,61.96,62.0000,358.0000
1981-12-20 17:30:00 UTC,2444959.229167,29.7697,-93.3439,0037,-4.08,77.89,78.0000,357.0000
1981-12-20 18:00:00 UTC,2444959.250000,29.7697,-93.3439,0037,-8.11,92.65,93.0000,355.0000
1981-12-20 18:30:00 UTC,2444959.270833,29.7697,-93.3439,0037,-10.35,98.46,99.0000,354.0000
1981-12-20 19:00:00 UTC,2444959.291667,29.7697,-93.3439,0037,-8.80,100.62,101.0000,355.0000
1981-12-20 19:30:00 UTC,2444959.312500,29.7697,-93.3439,0037,-6.91,98.76,99.0000,356.0000
1981-12-20 20:00:00 UTC,2444959.333333,29.7697,-93.3439,0037,-6.49,92.77,93.0000,356.0000
1981-12-20 20:30:00 UTC,2444959.354167,29.7697,-93.3439,0037,-4.40,83.88,84.0000,357.0000
1981-12-20 21:00:00 UTC,2444959.375000,29.7697,-93.3439,0037,-2.65,75.95,76.0000,358.0000
1981-12-20 21:30:00 UTC,2444959.395833,29.7697,-93.3439,0037,-2.48,70.96,71.0000,358.0000
1981-12-20 22:00:00 UTC,2444959.416667,29.7697,-93.3439,0037,-1.20,68.99,69.0000,359.0000
1981-12-20 22:30:00 UTC,2444959.437500,29.7697,-93.3439,0037,-1.19,67.99,68.0000,359.0000
1981-12-20 23:00:00 UTC,2444959.458333,29.7697,-93.3439,0037,0.00,0.00,0.0000,0.0000
1981-12-20 23:30:00 UTC,2444959.479167,29.7697,-93.3439,0037,-1.15,65.99,66.0000,359.0000
1981-12-21 00:00:00 UTC,2444959.500000,29.7697,-93.3439,0037,-1.13,64.99,65.0000,359.0000
1981-12-21 00:30:00 UTC,2444959.520833,29.7697,-93.3439,0037,-1.15,65.99,66.0000,359.0000
1981-12-21 01:00:00 UTC,2444959.541667,29.7697,-93.3439,0037,-1.22,69.99,70.0000,359.0000
1981-12-21 01:30:00 UTC,2444959.562500,29.7697,-93.3439,0037,-1.27,72.99,73.0000,359.0000
1981-12-21 02:00:00 UTC,2444959.583333,29.7697,-93.3439,0037,-1.27,72.99,73.0000,359.0000
1981-12-21 02:30:00 UTC,2444959.604167,29.7697,-93.3439,0037,-1.29,73.99,74.0000,359.0000
1981-12-21 03:00:00 UTC,2444959.625000,29.7697,-93.3439,0037,-1.34,76.99,77.0000,359.0000
1981-12-21 03:30:00 UTC,2444959.645833,29.7697,-93.3439,0037,-1.41,80.99,81.0000,359.0000
1981-12-21 04:00:00 UTC,2444959.666667,29.7697,-93.3439,0037,-1.48,84.99,85.0000,359.0000
1981-12-21 04:30:00 UTC,2444959.687500,29.7697,-93.3439,0037,1.50,85.99,86.0000,1.0000
1981-12-21 05:00:00 UTC,2444959.708333,29.7697,-93.3439,0037,-1.50,85.99,86.0000,359.0000
1981-12-21 05:30:00 UTC,2444959.729167,29.7697,-93.3439,0037,-4.66,88.88,89.0000,357.0000
1981-12-21 06:00:00 UTC,2444959.750000,29.7697,-93.3439,0037,-6.35,90.78,91.0000,356.0000
1981-12-21 06:30:00 UTC,2444959.770833,29.7697,-93.3439,0037,-4.55,86.88,87.0000,357.0000
1981-12-21 07:00:00 UTC,2444959.791667,29.7697,-93.3439,0037,-2.86,81.95,82.0000,358.0000
1981-12-21 07:30:00 UTC,2444959.812500,29.7697,-93.3439,0037,-4.03,76.89,77.0000,357.0000
1981-12-21 08:00:00 UTC,2444959.833333,29.7697,-93.3439,0037,-4.60,65.84,66.0000,356.0000